User: anonymous   Login
Location: Unspecified
(0.0000°N, 0.0000°E)
Time: 04:20:51
(UTC+02:00)
Language:

CZ-4 R/B - Orbit

View from above orbital plane
View from above orbital plane
View from above satellite
View from above satellite

Ground track
Ground track

The orbit data is extracted from the following two-line orbital elements,

1 28059U 03049C   15088.20121285  .00000327  00000-0  91484-4 0  9995
2 28059 098.6723 301.6299 0050002 195.6488 274.6653 14.52311839605954
Epoch (UTC): 29 March 2015 04:49:44
Eccentricity: 0.0050002
inclination: 98.6723°
perigee height: 682 km
apogee height: 753 km
right ascension of ascending node: 301.6299°
argument of perigee: 195.6488°
revolutions per day: 14.52311839
mean anomaly at epoch: 274.6653°
orbit number at epoch: 60595

The dashed part of the orbit path shows where the satellite is in the earth's shadow,  

DLR